FW5225 Weather Reports


Display with metric or nautical units.
time (UTC)temp
F
wind
direction
speed
MPH
gust
MPH
rain 1hr
in
rain 24hr
in
rain mn
in
humidity
%
barometer
mb
20260504050543 78 234 3.0 11.0 0.00 0.00 0.00 28 1006.7
20260504045541 79 289 5.0 13.0 0.00 0.00 0.00 27 1006.7
20260504045041 79 217 4.0 12.0 0.00 0.00 0.00 27 1006.7
20260504044542 79 259 3.0 10.0 0.00 0.00 0.00 27 1006.6
20260504044043 79 229 3.0 11.0 0.00 0.00 0.00 26 1006.6
20260504043542 79 276 5.0 11.0 0.00 0.00 0.00 26 1006.6
20260504043049 79 251 4.0 9.0 0.00 0.00 0.00 26 1006.6
20260504042540 80 273 3.0 11.0 0.00 0.00 0.00 25 1006.6
20260504042042 80 235 3.0 11.0 0.00 0.00 0.00 24 1006.5
20260504041541 80 257 5.0 11.0 0.00 0.00 0.00 24 1006.5
20260504041040 80 171 5.0 13.0 0.00 0.00 0.00 23 1006.5
20260504040540 80 238 6.0 13.0 0.00 0.00 0.00 23 1006.3
20260504040040 80 258 4.0 17.0 0.00 0.00 0.00 22 1006.3
20260504035540 80 279 6.0 15.0 0.00 0.00 0.00 22 1006.2
20260504035044 81 297 6.0 13.0 0.00 0.00 0.00 22 1006.1
20260504034547 81 247 6.0 13.0 0.00 0.00 0.00 21 1006.0
20260504034039 81 181 5.0 11.0 0.00 0.00 0.00 21 1005.9
20260504033539 81 245 4.0 9.0 0.00 0.00 0.00 21 1005.9
20260504033041 81 260 5.0 14.0 0.00 0.00 0.00 21 1005.8
20260504032538 81 281 6.0 14.0 0.00 0.00 0.00 21 1005.6
20260504032043 81 218 5.0 13.0 0.00 0.00 0.00 20 1005.6
20260504031538 82 290 5.0 15.0 0.00 0.00 0.00 20 1005.4
20260504031039 82 269 7.0 16.0 0.00 0.00 0.00 20 1005.4
20260504030538 82 238 5.0 12.0 0.00 0.00 0.00 20 1005.4
20260504030045 82 265 4.0 15.0 0.00 0.00 0.00 19 1005.0
20260504025538 82 246 7.0 15.0 0.00 0.00 0.00 19 1005.0
20260504025038 83 311 7.0 14.0 0.00 0.00 0.00 19 1004.8
20260504024537 83 209 5.0 14.0 0.00 0.00 0.00 18 1004.6
20260504024037 83 244 6.0 13.0 0.00 0.00 0.00 18 1004.6
20260504023537 83 298 4.0 17.0 0.00 0.00 0.00 18 1004.5
20260504023037 84 347 5.0 17.0 0.00 0.00 0.00 18 1004.5
20260504022537 84 209 6.0 14.0 0.00 0.00 0.00 18 1004.4
20260504022036 84 254 5.0 14.0 0.00 0.00 0.00 17 1004.2
20260504021537 85 190 5.0 13.0 0.00 0.00 0.00 17 1004.3
20260504021037 85 271 6.0 15.0 0.00 0.00 0.00 17 1004.3
20260504020536 85 284 5.0 15.0 0.00 0.00 0.00 16 1004.1
20260504020043 85 235 5.0 17.0 0.00 0.00 0.00 17 1004.0
20260504015536 85 268 6.0 17.0 0.00 0.00 0.00 17 1004.1
20260504015036 85 257 4.0 18.0 0.00 0.00 0.00 17 1004.1
20260504014539 86 262 5.0 15.0 0.00 0.00 0.00 17 1003.9
20260504014035 86 243 5.0 14.0 0.00 0.00 0.00 17 1003.7
20260504013536 86 229 4.0 13.0 0.00 0.00 0.00 17 1003.9
20260504013037 87 269 4.0 15.0 0.00 0.00 0.00 17 1003.8
20260504012535 87 286 6.0 16.0 0.00 0.00 0.00 17 1003.8
20260504012037 87 255 7.0 14.0 0.00 0.00 0.00 17 1003.7
20260504011534 87 243 5.0 13.0 0.00 0.00 0.00 17 1003.8
20260504011035 88 307 5.0 12.0 0.00 0.00 0.00 16 1003.8
20260504010534 88 226 5.0 12.0 0.00 0.00 0.00 16 1003.8
20260504010034 89 226 5.0 13.0 0.00 0.00 0.00 16 1003.8
20260504005535 89 277 5.0 13.0 0.00 0.00 0.00 15 1003.8
20260504005035 89 247 6.0 13.0 0.00 0.00 0.00 15 1003.9
20260504004534 90 268 6.0 17.0 0.00 0.00 0.00 15 1003.8
20260504004033 90 223 5.0 17.0 0.00 0.00 0.00 15 1003.9
20260504003532 90 232 5.0 15.0 0.00 0.00 0.00 15 1003.9
20260504003032 90 300 4.0 12.0 0.00 0.00 0.00 14 1003.9
20260504002532 90 265 6.0 15.0 0.00 0.00 0.00 14 1003.9
20260504002032 91 299 7.0 15.0 0.00 0.00 0.00 14 1003.8
20260504001536 91 213 6.0 12.0 0.00 0.00 0.00 14 1003.9
20260504001033 91 224 5.0 14.0 0.00 0.00 0.00 14 1003.9
20260504000533 92 256 5.0 14.0 0.00 0.00 0.00 13 1003.8
20260504000032 92 267 4.0 11.0 0.00 0.00 0.00 14 1003.8
20260503235532 92 223 5.0 12.0 0.00 0.00 0.00 13 1003.8
20260503235032 92 232 4.0 14.0 0.00 0.00 0.00 13 1003.8
20260503234532 92 250 6.0 15.0 0.00 0.00 0.00 13 1003.9
20260503234034 92 279 6.0 15.0 0.00 0.00 0.00 13 1003.8
20260503233532 93 246 5.0 12.0 0.00 0.00 0.00 13 1003.7
20260503233031 93 219 5.0 13.0 0.00 0.00 0.00 13 1003.7
20260503232531 93 202 4.0 13.0 0.00 0.00 0.00 13 1003.7
20260503232032 93 260 5.0 14.0 0.00 0.00 0.00 13 1003.6
20260503231530 93 277 5.0 11.0 0.00 0.00 0.00 13 1003.6
20260503231030 93 286 5.0 11.0 0.00 0.00 0.00 13 1003.7
20260503230530 93 267 5.0 11.0 0.00 0.00 0.00 13 1003.7
20260503230030 93 214 5.0 12.0 0.00 0.00 0.00 13 1003.9
20260503225530 94 295 5.0 9.0 0.00 0.00 0.00 13 1003.8
20260503225029 94 222 4.0 9.0 0.00 0.00 0.00 13 1003.9
20260503224527 94 343 2.0 8.0 0.00 0.00 0.00 13 1004.0
20260503224027 94 232 1.0 11.0 0.00 0.00 0.00 13 1004.0
20260503223526 95 272 4.0 11.0 0.00 0.00 0.00 13 1004.1
20260503223026 95 211 1.0 8.0 0.00 0.00 0.00 13 1004.2
20260503222524 95 293 3.0 8.0 0.00 0.00 0.00 13 1004.2
20260503222025 95 232 2.0 6.0 0.00 0.00 0.00 14 1004.3
20260503221523 94 329 0.0 5.0 0.00 0.00 0.00 13 1004.4
20260503221023 94 262 2.0 6.0 0.00 0.00 0.00 13 1004.6
20260503220521 94 186 1.0 7.0 0.00 0.00 0.00 13 1004.7
20260503220020 94 265 3.0 8.0 0.00 0.00 0.00 13 1004.9
20260503215520 94 277 3.0 8.0 0.00 0.00 0.00 13 1004.9
20260503215018 94 255 4.0 8.0 0.00 0.00 0.00 13 1005.1
20260503214535 94 274 2.0 7.0 0.00 0.00 0.00 13 1005.1
20260503214017 94 167 3.0 7.0 0.00 0.00 0.00 13 1005.2
20260503213516 94 284 2.0 8.0 0.00 0.00 0.00 13 1005.3
20260503213016 94 232 4.0 9.0 0.00 0.00 0.00 13 1005.4
20260503212518 94 266 1.0 9.0 0.00 0.00 0.00 13 1005.4
20260503212017 95 239 3.0 9.0 0.00 0.00 0.00 13 1005.5
20260503211515 95 325 5.0 9.0 0.00 0.00 0.00 13 1005.5
20260503211015 95 144 2.0 7.0 0.00 0.00 0.00 14 1005.5
20260503210514 95 206 2.0 9.0 0.00 0.00 0.00 13 1005.7
20260503210014 95 225 2.0 9.0 0.00 0.00 0.00 13 1005.7
20260503205513 95 244 2.0 9.0 0.00 0.00 0.00 13 1005.8
20260503205012 95 239 4.0 9.0 0.00 0.00 0.00 14 1005.9
20260503204511 94 241 2.0 8.0 0.00 0.00 0.00 13 1005.9
20260503204009 94 267 2.0 8.0 0.00 0.00 0.00 14 1006.0
20260503203508 94 274 3.0 10.0 0.00 0.00 0.00 13 1006.1
20260503203008 94 294 4.0 10.0 0.00 0.00 0.00 15 1006.2
20260503202508 94 144 0.0 6.0 0.00 0.00 0.00 15 1006.2
20260503202007 94 265 2.0 8.0 0.00 0.00 0.00 14 1006.3
20260503201507 94 226 2.0 8.0 0.00 0.00 0.00 14 1006.4
20260503201009 94 242 3.0 8.0 0.00 0.00 0.00 14 1006.4
20260503200505 94 215 2.0 7.0 0.00 0.00 0.00 14 1006.5
20260503200004 94 265 1.0 5.0 0.00 0.00 0.00 14 1006.6
20260503195503 94 253 1.0 8.0 0.00 0.00 0.00 14 1006.7
20260503195002 93 263 3.0 9.0 0.00 0.00 0.00 14 1006.8
20260503194502 94 192 3.0 9.0 0.00 0.00 0.00 14 1006.8
20260503194001 94 201 3.0 9.0 0.00 0.00 0.00 14 1006.9
20260503193601 93 171 2.0 8.0 0.00 0.00 0.00 15 1006.9
20260503193105 94 221 2.0 9.0 0.00 0.00 0.00 14 1007.0
20260503192558 93 229 1.0 9.0 0.00 0.00 0.00 14 1007.1
20260503192057 93 213 1.0 6.0 0.00 0.00 0.00 14 1007.2
20260503191605 93 145 0.0 7.0 0.00 0.00 0.00 15 1007.3
20260503191056 93 148 2.0 6.0 0.00 0.00 0.00 16 1007.5
20260503190555 93 215 2.0 6.0 0.00 0.00 0.00 16 1007.5
20260503190054 93 144 2.0 5.0 0.00 0.00 0.00 16 1007.4
20260503185552 92 192 1.0 6.0 0.00 0.00 0.00 16 1007.4
20260503185051 92 192 1.0 6.0 0.00 0.00 0.00 18 1007.5
20260503184600 92 163 2.0 6.0 0.00 0.00 0.00 18 1007.6
20260503184049 91 168 2.0 6.0 0.00 0.00 0.00 17 1007.8
20260503183549 90 189 1.0 5.0 0.00 0.00 0.00 19 1007.9
20260503183046 90 112 2.0 6.0 0.00 0.00 0.00 19 1008.0
20260503182545 90 355 1.0 8.0 0.00 0.00 0.00 21 1008.0
20260503182044 89 97 3.0 8.0 0.00 0.00 0.00 20 1008.2
20260503181607 89 185 3.0 9.0 0.00 0.00 0.00 20 1008.2
20260503181042 89 244 1.0 9.0 0.00 0.00 0.00 22 1008.2
20260503180541 89 109 2.0 7.0 0.00 0.00 0.00 20 1008.3
20260503180050 88 220 1.0 8.0 0.00 0.00 0.00 22 1008.5
20260503175538 88 90 3.0 9.0 0.00 0.00 0.00 22 1008.5
20260503175037 87 138 3.0 9.0 0.00 0.00 0.00 23 1008.6
20260503174545 87 95 3.0 9.0 0.00 0.00 0.00 22 1008.6
20260503174035 86 116 3.0 8.0 0.00 0.00 0.00 24 1008.6
20260503173533 86 136 2.0 9.0 0.00 0.00 0.00 24 1008.7
20260503173041 85 78 1.0 9.0 0.00 0.00 0.00 25 1008.8
20260503172530 85 162 3.0 8.0 0.00 0.00 0.00 25 1008.8
20260503172031 84 107 3.0 8.0 0.00 0.00 0.00 26 1008.8
20260503171527 84 72 3.0 11.0 0.00 0.00 0.00 26 1008.9
20260503171029 83 86 2.0 11.0 0.00 0.00 0.00 27 1008.9
20260503170530 83 130 3.0 8.0 0.00 0.00 0.00 27 1008.9
20260503151004 78 50 2.0 8.0 0.00 0.00 0.00 31 1008.7
20260503150507 78 81 4.0 8.0 0.00 0.00 0.00 30 1008.7
20260503131042 77 56 4.0 9.0 0.00 0.00 0.00 29 1007.8
20260503130541 77 45 4.0 9.0 0.00 0.00 0.00 28 1007.8
20260503110535 78 54 3.0 6.0 0.00 0.00 0.00 24 1007.7
20260503081535 76 35 0.0 3.0 0.00 0.00 0.00 24 1007.9
20260503081019 76 17 0.0 4.0 0.00 0.00 0.00 23 1008.0
20260503080519 76 5 0.0 4.0 0.00 0.00 0.00 22 1008.1
20260503072519 76 125 2.0 7.0 0.00 0.00 0.00 23 1008.3
20260503072015 76 104 0.0 0.0 0.00 0.00 0.00 24 1008.1
20260503071514 76 33 0.0 0.0 0.00 0.00 0.00 25 1007.9
20260503071013 76 33 0.0 0.0 0.00 0.00 0.00 25 1007.9
20260503070512 76 33 0.0 0.0 0.00 0.00 0.00 26 1007.8